Zurück zum Katalog

STARLINK-1307

AktivKommunikationVLEO
NORAD 45397·PAYLOAD·🇺🇸 United States

Gestartet Mar 18, 2020 von Cape Canaveral Space Force Station

Loading…

Nächste Überflüge (nächste 24 Stunden)

TLE

AktuellSource: CelesTrak SupGP

Epoche: Sep 14, 2026, 13:38 UTC

1 45397C 20019AP  26257.56854167  .00084924  00000+0  89627-3 0  2572
2 45397  53.0481 294.9725 0003061  42.9896 142.6798 15.63525898    17

Verfolge STARLINK-1307 in Echtzeit mit AllMySat

Download on the App Store